15 daagse weersverwachting BodÝ (NO)

  • Overzicht
  • Per uur
  • 15 dagen
  • Extra
  • Vergelijk
  • Kaarten
  • Dagkaart
  • Meer »
  • Info
  • Statistieken
  • Directe link
    Temp 6h Neerslag Wind  
 05:34     20:35    Daglengte: 15:01 Morgen
02:00
1.9 mm
8
warningclass
08:00
2.2 mm
6
warningclass
14:00
6.3 mm
8
20:00
3.9 mm
7
warningclass
 05:30     20:38    Daglengte: 15:08 Zaterdag 11 Apr
02:00
1.0 mm
7
warningclass
08:00
3.4 mm
6
14:00
1.2 mm
6
20:00
 
3
 05:26     20:42    Daglengte: 15:16 Zondag 12 Apr
02:00
 
4
08:00
8.8 mm
5
warningclass
14:00
14.9 mm
5
20:00
10.7 mm
8
Locatie info
Region: Nordland
Latitude: 67.2860°N
Longitude: 14.3998°E
22 masl
Postcode: 8006
Temp/Neerslag /Baro Onweer/DauwpuntSneeuw
    Temp Baro 1h Neerslag Dauwpunt Wind UV BewolkingSneeuw  
 05:38     20:31    Daglengte: 14:53 Vandaag
23:00
Voelt als: -5.2°
1016.1 hPa
48%
-4.2°
8
Windvlaag: 8.7 km/h
67%1 cm
 05:34     20:35    Daglengte: 15:01 Morgen
00:00
Voelt als: -5.3°
1016.2 hPa 0.6 mm
82%
-5.0°
8
Windvlaag: 8.6 km/h
61%1 cm warningclass
01:00
Voelt als: -5.3°
1016.3 hPa 0.6 mm
82%
-4.9°
8
Windvlaag: 7.7 km/h
80%1 cm warningclass
02:00
Voelt als: -5.6°
1016.5 hPa 0.7 mm
82%
-4.0°
8
Windvlaag: 8.7 km/h
81%2 cm warningclass
03:00
Voelt als: -5.7°
1016.4 hPa
82%
-5.1°
8
Windvlaag: 9.1 km/h
76%2 cm
04:00
Voelt als: -5.8°
1016.3 hPa 0.7 mm
82%
-5.2°
8
Windvlaag: 9.2 km/h
82%2 cm warningclass
05:00
Voelt als: -5.6°
1016.1 hPa 0.8 mm
82%
-5.2°
8
Windvlaag: 8.6 km/h
84%2 cm warningclass
06:00
Voelt als: -5.2°
1015.6 hPa
81%
-5.1°
7
Windvlaag: 8.8 km/h
88%2 cm
07:00
Voelt als: -5.2°
1015.5 hPa
82%
-3.3°
7
Windvlaag: 8.3 km/h
87%2 cm
08:00
Voelt als: -5.1°
1015.1 hPa 0.7 mm
82%
-2.9°
6
Windvlaag: 7.4 km/h
91%2 cm warningclass
09:00
Voelt als: -4.6°
1014.7 hPa 0.8 mm
82%
-2.2°
6
Windvlaag: 5 km/h
91%2 cm warningclass
10:00
Voelt als: -4.1°
1014.6 hPa 1.4 mm
82%
-1.9°
7
Windvlaag: 5.3 km/h
90%2 cm
11:00
Voelt als: -3.3°
1014.4 hPa 0.9 mm
82%
-1.2°
6
Windvlaag: 6.5 km/h
89%2 cm
12:00
Voelt als: -4.1°
1014.5 hPa 1.0 mm
82%
-1.7°
7
Windvlaag: 8.4 km/h
90%2 cm
13:00
Voelt als: -4.8°
1014.8 hPa 0.9 mm
82%
-1.3°
8
Windvlaag: 9.2 km/h
88%2 cm
14:00
Voelt als: -4.6°
1015.0 hPa 1.3 mm
82%
-2.2°
8
Windvlaag: 8.7 km/h
71%2 cm
15:00
Voelt als: -4.1°
1015.3 hPa
81%
-3.9°
8
Windvlaag: 9.9 km/h
65%2 cm
16:00
Voelt als: -4.8°
1015.8 hPa 1.0 mm
82%
-2.7°
8
Windvlaag: 11.3 km/h
57%2 cm warningclass
17:00
Voelt als: -4.3°
1016.2 hPa 0.9 mm
82%
-4.2°
8
Windvlaag: 9.8 km/h
49%2 cm
18:00
Voelt als: -5.0°
1016.8 hPa 1.0 mm
82%
-2.2°
8
Windvlaag: 9.8 km/h
67%2 cm warningclass
19:00
Voelt als: -4.7°
1017.2 hPa 0.9 mm
82%
-3.9°
7
Windvlaag: 8.7 km/h
55%2 cm warningclass
20:00
Voelt als: -4.8°
1017.5 hPa
82%
-4.4°
7
Windvlaag: 8.2 km/h
76%2 cm
21:00
Voelt als: -5.2°
1017.9 hPa
82%
-1.9°
7
Windvlaag: 8.7 km/h
68%2 cm
22:00
Voelt als: -4.9°
1018.4 hPa 1.0 mm
82%
-3.2°
6
Windvlaag: 7.7 km/h
44%2 cm warningclass
23:00
Voelt als: -4.7°
1018.7 hPa
82%
-4.1°
6
Windvlaag: 7 km/h
39%2 cm
 05:30     20:38    Daglengte: 15:08 Zaterdag 11 Apr
00:00
Voelt als: -4.8°
1019.2 hPa
82%
-2.9°
6
Windvlaag: 7.8 km/h
63%2 cm
01:00
Voelt als: -4.6°
1019.5 hPa
82%
-3.2°
6
Windvlaag: 5.8 km/h
72%2 cm
02:00
Voelt als: -4.8°
1019.9 hPa
82%
-4.1°
7
Windvlaag: 6.9 km/h
73%2 cm
03:00
Voelt als: -4.6°
1020.2 hPa
82%
-3.7°
7
Windvlaag: 7.4 km/h
80%2 cm
04:00
Voelt als: -4.3°
1020.3 hPa 1.1 mm
82%
-4.0°
6
Windvlaag: 7.3 km/h
69%3 cm warningclass
05:00
Voelt als: -3.9°
1020.6 hPa 1.1 mm
82%
-4.4°
5
Windvlaag: 6.7 km/h
49%3 cm warningclass
06:00
Voelt als: -3.5°
1020.5 hPa
82%
-3.7°
5
Windvlaag: 5.5 km/h
63%3 cm
07:00
Voelt als: -3.5°
1020.4 hPa
81%
-3.5°
5
Windvlaag: 4.4 km/h
81%3 cm
08:00
Voelt als: -3.9°
1020.2 hPa 1.2 mm
82%
-1.9°
6
Windvlaag: 6 km/h
66%3 cm
09:00
Voelt als: -3.4°
1020.1 hPa 1.2 mm
82%
-3.4°
6
Windvlaag: 6.7 km/h
61%2 cm
10:00
Voelt als: -3.0°
1020.3 hPa
82%
-2.3°
6
Windvlaag: 7.7 km/h
44%2 cm
11:00
Voelt als: -2.0°
1020.2 hPa
82%
-2.1°
5
Windvlaag: 6.4 km/h
51%2 cm
12:00
Voelt als: -2.3°
1020.1 hPa
81%
-3.5°
6
Windvlaag: 7.5 km/h
72%2 cm
13:00
Voelt als: -2.2°
1019.9 hPa
80%
-3.3°
6
Windvlaag: 7.7 km/h
48%2 cm
14:00
Voelt als: -2.3°
1019.6 hPa
80%
-3.3°
6
Windvlaag: 7.9 km/h
59%2 cm
15:00
Voelt als: -2.2°
1019.1 hPa
78%
-3.5°
5
Windvlaag: 7.6 km/h
69%2 cm
16:00
Voelt als: -1.8°
1018.5 hPa
78%
-3.6°
5
Windvlaag: 7 km/h
83%2 cm
17:00
Voelt als: -1.1°
1017.5 hPa
97%
-3.7°
4
Windvlaag: 6.1 km/h
89%2 cm
18:00
Voelt als: -0.1°
1016.6 hPa
100%
-3.8°
2
Windvlaag: 4.8 km/h
95%2 cm
19:00
Voelt als: -0.3°
1015.4 hPa
99%
-4.0°
2
Windvlaag: 3.4 km/h
87%2 cm
20:00
Voelt als: -1.9°
1014.2 hPa
88%
-3.8°
3
Windvlaag: 2.5 km/h
97%2 cm
21:00
Voelt als: -3.9°
1012.9 hPa
79%
-3.3°
4
Windvlaag: 4.5 km/h
99%2 cm
22:00
-0°
Voelt als: -5.1°
1011.6 hPa
21%
-4.5°
5
Windvlaag: 6.4 km/h
100%2 cm
23:00
Voelt als: -5.0°
1009.8 hPa
21%
-4.9°
5
Windvlaag: 7.4 km/h
100%2 cm
 05:26     20:42    Daglengte: 15:16 Zondag 12 Apr
00:00
Voelt als: -4.3°
1008.2 hPa
21%
-4.9°
5
Windvlaag: 7.2 km/h
100%2 cm
01:00
Voelt als: -3.8°
1006.7 hPa
21%
-5.1°
4
Windvlaag: 6.5 km/h
100%2 cm
02:00
Voelt als: -3.4°
1005.4 hPa
21%
-4.8°
4
Windvlaag: 6 km/h
100%2 cm
03:00
Voelt als: -3.4°
1004.1 hPa
21%
-4.2°
4
Windvlaag: 3.1 km/h
100%2 cm
04:00
Voelt als: -4.0°
1002.8 hPa
21%
-4.1°
4
Windvlaag: 3.1 km/h
100%2 cm
05:00
Voelt als: -4.1°
1001.5 hPa 2.1 mm
22%
-3.7°
5
Windvlaag: 2.3 km/h
100%3 cm warningclass
06:00
Voelt als: -4.2°
1000.3 hPa 2.2 mm
24%
-3.5°
5
Windvlaag: 2 km/h
100%3 cm warningclass
07:00
Voelt als: -3.9°
999.2 hPa 2.3 mm
26%
-3.0°
5
Windvlaag: 1.9 km/h
100%3 cm warningclass
08:00
Voelt als: -3.6°
998.2 hPa 2.3 mm
27%
-2.4°
5
Windvlaag: 0.6 km/h
97%3 cm warningclass
09:00
Voelt als: -3.3°
997.6 hPa 2.3 mm
28%
-2.2°
5
Windvlaag: -1.7 km/h
95%3 cm warningclass
10:00
Voelt als: -3.0°
997.2 hPa 2.4 mm
29%
-2.1°
4
Windvlaag: -4 km/h
95%3 cm warningclass
11:00
Voelt als: -2.9°
996.8 hPa 2.6 mm
29%
-1.8°
4
Windvlaag: -5.4 km/h
89%3 cm
12:00
Voelt als: -3.0°
996.4 hPa 2.5 mm
44%
-1.5°
5
Windvlaag: -6.7 km/h
87%3 cm
13:00
Voelt als: -3.2°
996.2 hPa 2.5 mm
57%
-1.4°
6
Windvlaag: -7.4 km/h
86%3 cm
14:00
Voelt als: -2.8°
996.0 hPa 2.5 mm
97%
-1.4°
5
Windvlaag: -3.4 km/h
90%3 cm
15:00
Voelt als: -2.8°
996.8 hPa 2.6 mm
100%
-1.6°
5
Windvlaag: 12.5 km/h
99%3 cm
16:00
Voelt als: -3.3°
997.4 hPa 2.9 mm
100%
-1.8°
5
Windvlaag: 11.7 km/h
98%3 cm
17:00
Voelt als: -3.7°
997.8 hPa 2.6 mm
100%
-1.8°
6
Windvlaag: 13.2 km/h
88%3 cm
18:00
Voelt als: -3.7°
998.1 hPa
100%
-1.5°
6
Windvlaag: 12.8 km/h
91%3 cm
19:00
Voelt als: -4.0°
998.7 hPa
58%
-1.7°
7
Windvlaag: 14.9 km/h
81%3 cm
20:00
Voelt als: -4.2°
999.4 hPa 2.7 mm
100%
-1.5°
8
Windvlaag: 2.1 km/h
91%3 cm
21:00
Voelt als: -4.6°
1000.1 hPa 8.2 mm
100%
-1.9°
9
Windvlaag: 15 km/h
89%3 cm
22:00
Voelt als: -4.7°
1000.8 hPa 8.3 mm
100%
-2.1°
9
Windvlaag: 18.8 km/h
89%3 cm warningclass
Temp/Neerslag /Baro Onweer/DauwpuntSneeuw
    Temp Baro Neerslag Dauwpunt Wind BewolkingSneeuw  
 05:38     20:31    Daglengte: 14:53 Vandaag
23:00
Voelt als: -5.2°
1016.1 hPa   -4.2°
8
67%1 cm
 05:34     20:35    Daglengte: 15:01 Morgen
02:00
Voelt als: -5.6°
1016.5 hPa 1.9 mm -4.0°
8
81%2 cm warningclass
05:00
Voelt als: -5.6°
1016.1 hPa 1.5 mm -5.2°
8
84%2 cm warningclass
08:00
Voelt als: -5.1°
1015.1 hPa 0.7 mm -2.9°
6
91%2 cm warningclass
11:00
Voelt als: -3.3°
1014.4 hPa 3.1 mm -1.2°
6
89%2 cm
14:00
Voelt als: -4.6°
1015.0 hPa 3.3 mm -2.2°
8
71%2 cm
17:00
Voelt als: -4.3°
1016.2 hPa 1.9 mm -4.2°
8
49%2 cm
20:00
Voelt als: -4.8°
1017.5 hPa 1.9 mm -4.4°
7
76%2 cm warningclass
23:00
Voelt als: -4.7°
1018.7 hPa 1.0 mm -4.1°
6
39%2 cm warningclass
 05:30     20:38    Daglengte: 15:08 Zaterdag 11 Apr
02:00
Voelt als: -4.8°
1019.9 hPa   -4.1°
7
73%2 cm
05:00
Voelt als: -3.9°
1020.6 hPa 2.2 mm -4.4°
5
49%3 cm warningclass
08:00
Voelt als: -3.9°
1020.2 hPa 1.2 mm -1.9°
6
66%3 cm
11:00
Voelt als: -2.0°
1020.2 hPa 1.2 mm -2.1°
5
51%2 cm
14:00
Voelt als: -2.3°
1019.6 hPa   -3.3°
6
59%2 cm
17:00
Voelt als: -1.1°
1017.5 hPa   -3.7°
4
89%2 cm
20:00
Voelt als: -1.9°
1014.2 hPa   -3.8°
3
97%2 cm
23:00
Voelt als: -5.0°
1009.8 hPa   -4.9°
5
100%2 cm
 05:26     20:42    Daglengte: 15:16 Zondag 12 Apr
02:00
Voelt als: -3.4°
1005.4 hPa   -4.8°
4
100%2 cm
05:00
Voelt als: -4.1°
1001.5 hPa 2.1 mm -3.7°
5
100%3 cm warningclass
08:00
Voelt als: -3.6°
998.2 hPa 6.8 mm -2.4°
5
97%3 cm warningclass
11:00
Voelt als: -2.9°
996.8 hPa 7.4 mm -1.8°
4
89%3 cm
14:00
Voelt als: -2.8°
996.0 hPa 7.5 mm -1.4°
5
90%3 cm
17:00
Voelt als: -3.7°
997.8 hPa 8.1 mm -1.8°
6
88%3 cm
20:00
Voelt als: -4.2°
999.4 hPa 2.7 mm -1.5°
8
91%3 cm
23:00
Voelt als: -5.0°
1001.6 hPa 25.4 mm -1.9°
10
91%3 cm warningclass
 05:22     20:46    Daglengte: 15:24 Maandag 13 Apr
02:00
Voelt als: -5.4°
1003.9 hPa 29.2 mm -2.8°
11
84%4 cm
05:00
Voelt als: -5.4°
1009.4 hPa 14.2 mm -3.1°
10
57%
08:00
Voelt als: -5.6°
1012.1 hPa 14.6 mm -3.4°
10
47%
11:00
Voelt als: -5.1°
1013.3 hPa 15.0 mm -3.8°
9
55%
14:00
Voelt als: -4.4°
1014.5 hPa 15.2 mm -4.2°
8
62%
17:00
Voelt als: -3.7°
1014.7 hPa 15.5 mm -4.0°
6
76%
20:00
Voelt als: -2.6°
1014.9 hPa 16.1 mm -3.9°
4
91%
23:00
Voelt als: -2.6°
1013.4 hPa 16.4 mm -3.0°
4
91%
 05:17     20:50    Daglengte: 15:33 Dinsdag 14 Apr
02:00
Voelt als: -2.8°
1011.7 hPa 16.8 mm -2.3°
4
92%
05:00
Voelt als: -3.4°
1007.2 hPa 16.9 mm -1.6°
6
92%
08:00
Voelt als: -3.6°
1002.7 hPa 16.9 mm -0.7°
8
92%
11:00
Voelt als: -1.9°
1001.2 hPa 17.0 mm 1.0°
8
92%
14:00
Voelt als: -0.3°
999.6 hPa 18.6 mm 2.8°
8
92%
17:00
Voelt als: 0.0°
998.5 hPa 24.4 mm 3.3°
8
92%
20:00
Voelt als: 0.2°
997.7 hPa 27.0 mm 3.5°
8
92%
23:00
Voelt als: -0.1°
997.8 hPa 27.6 mm 3.4°
9
92%
 05:13     20:53    Daglengte: 15:40 Woensdag 15 Apr
02:00
Voelt als: -0.3°
997.8 hPa 27.9 mm 3.3°
9
92%
05:00
Voelt als: -0.7°
998.9 hPa 28.4 mm 3.1°
9
92%
08:00
Voelt als: -1.0°
999.8 hPa 28.7 mm 2.7°
10
92%
11:00
Voelt als: -0.9°
999.8 hPa 28.8 mm 2.4°
10
80%
14:00
Voelt als: -0.8°
999.8 hPa 29.6 mm 2.3°
10
68%
17:00
Voelt als: -0.8°
1000.9 hPa 30.7 mm 2.4°
10
69%
20:00
Voelt als: -1.0°
1001.9 hPa 30.8 mm 2.3°
9
70%
23:00
Voelt als: -0.9°
1002.0 hPa 31.1 mm 2.4°
9
79%
 05:09     20:57    Daglengte: 15:48 Donderdag 16 Apr
02:00
Voelt als: -0.9°
1002.0 hPa 31.6 mm 2.7°
9
89%
05:00
Voelt als: -1.1°
1001.2 hPa 32.0 mm 2.7°
9
90%
08:00
Voelt als: -1.3°
1000.4 hPa 34.3 mm 2.8°
9
92%
11:00
Voelt als: -0.8°
1000.5 hPa 37.7 mm 2.6°
8
90%
14:00
Voelt als: -0.3°
1000.8 hPa 38.4 mm 2.4°
8
88%
17:00
Voelt als: -0.6°
1001.9 hPa 39.2 mm 1.8°
8
78%
20:00
Voelt als: -1.2°
1003.1 hPa 79.3 mm 1.3°
8
67%
 05:05     21:01    Daglengte: 15:56 Vrijdag 17 Apr
02:00
Voelt als: -1.6°
1005.5 hPa 84.5 mm 0.8°
6
74%
08:00
Voelt als: -0.5°
1012.9 hPa 90.7 mm 0.5°
5
65%
14:00
Voelt als: 1.4°
1016.2 hPa 92.3 mm 0.3°
4
84%
20:00
Voelt als: 1.4°
1018.2 hPa 92.7 mm -0.2°
3
85%
 05:01     21:05    Daglengte: 16:04 Zaterdag 18 Apr
02:00
Voelt als: 0.7°
1017.1 hPa 92.7 mm 0.0°
3
88%
08:00
Voelt als: 0.1°
1017.5 hPa 92.7 mm 0.2°
5
83%
14:00
Voelt als: 2.8°
1018.9 hPa 92.7 mm 2.3°
6
80%
20:00
Voelt als: 1.9°
1018.9 hPa 92.7 mm 2.2°
6
78%
 04:56     21:08    Daglengte: 16:12 Zondag 19 Apr
02:00
Voelt als: 0.4°
1023.1 hPa 92.7 mm -1.4°
5
0%
08:00
Voelt als: 1.1°
1022.7 hPa 92.7 mm -0.0°
6
0%
14:00
Voelt als: 4.6°
1022.5 hPa 92.7 mm 3.2°
6
0%
20:00
Voelt als: 2.7°
1015.7 hPa 1.2 mm 3.8°
6
63%
 04:52     21:12    Daglengte: 16:20 Maandag 20 Apr
02:00
Voelt als: 1.5°
1016.8 hPa 0.4 mm 2.6°
5
63%
08:00
Voelt als: 2.1°
1017.6 hPa 1.0 mm 2.9°
5
63%
14:00
Voelt als: 3.2°
1019.2 hPa 1.0 mm 3.5°
5
58%
20:00
Voelt als: 2.9°
1019.5 hPa 1.0 mm 2.9°
4
56%
 04:48     21:16    Daglengte: 16:28 Dinsdag 21 Apr
02:00
Voelt als: 2.1°
1019.2 hPa 0.8 mm 2.3°
4
58%
08:00
Voelt als: 3.3°
1017.8 hPa 1.4 mm 2.8°
3
59%
14:00
Voelt als: 4.7°
1017.4 hPa 0.9 mm 3.9°
3
61%
20:00
Voelt als: 4.1°
1016.7 hPa 1.1 mm 3.6°
3
62%
 04:44     21:20    Daglengte: 16:36 Woensdag 22 Apr
02:00
Voelt als: 2.4°
1016.0 hPa 0.4 mm 3.0°
4
58%
08:00
Voelt als: 3.0°
1015.4 hPa 1.4 mm 3.4°
4
59%
14:00
Voelt als: 4.6°
1016.5 hPa 1.5 mm 3.6°
4
55%
20:00
Voelt als: 3.4°
1016.5 hPa 1.2 mm 2.9°
4
57%
 04:40     21:24    Daglengte: 16:44 Donderdag 23 Apr
02:00
Voelt als: 2.4°
1016.8 hPa 1.0 mm 2.7°
4
54%
08:00
Voelt als: 3.4°
1016.8 hPa 1.2 mm 2.8°
3
58%
14:00
Voelt als: 5.7°
1018.2 hPa 0.9 mm 3.0°
2
53%
20:00
Voelt als: 5.6°
1017.6 hPa 0.5 mm 2.7°
2
53%
 04:35     21:28    Daglengte: 16:53 Vrijdag 24 Apr
02:00
Voelt als: 2.8°
1017.0 hPa 1.0 mm 2.2°
3
54%
08:00
Voelt als: 3.1°
1016.2 hPa 1.1 mm 2.7°
3
52%
14:00
Voelt als: 4.0°
1016.2 hPa 0.8 mm 3.0°
4
55%
20:00
Voelt als: 3.5°
1015.3 hPa 1.2 mm 2.6°
3
54%
  CAPE Lifted Index Hail Supercell Tornado SRH 3km CL BTM PRES CL TOP PRES Swiss DWD icon SMHI TS
 05:38     20:31    Daglengte: 14:53 Vandaag
23:00 45 J/kg 9.4 K 0 % 0 % 0 % 0 m²/s² 0 0 10.99 85
 05:34     20:35    Daglengte: 15:01 Morgen
00:00 51 J/kg 10.3 K 0 % 0 % 0 % 0 m²/s² 0 0 11.71 85
01:00 90 J/kg 9.6 K 0 % 0 % 0 % 0 m²/s² 0 0 10.62 85
02:00 92 J/kg 9.7 K 0 % 0 % 0 % 0 m²/s² 0 0 11.02 85
03:00 71 J/kg 10.3 K 0 % 0 % 0 % 0 m²/s² 0 0 12.43 85
04:00 72 J/kg 9.8 K 0 % 0 % 0 % 0 m²/s² 0 0 11.87 85
05:00 67 J/kg 9.3 K 0 % 0 % 0 % 0 m²/s² 0 0 10.56 85
06:00 51 J/kg 8.9 K 0 % 0 % 0 % 0 m²/s² 0 0 10.22 3
07:00 58 J/kg 7.9 K 0 % 0 % 0 % 0 m²/s² 0 0 9.13 85
08:00 65 J/kg 6.6 K 0 % 0 % 0 % 0 m²/s² 0 0 7.38 85
09:00 56 J/kg 6.3 K 0 % 0 % 0 % 0 m²/s² 0 0 6.9 85
10:00 3 J/kg 6.4 K 0 % 0 % 0 % 0 m²/s² 0 0 7.18 86
11:00 49 J/kg 5.1 K 0 % 0 % 0 % 0 m²/s² 0 0 5.91 85
12:00 166 J/kg 4.7 K 0 % 0 % 0 % 0 m²/s² 0 0 5.42 85
13:00 90 J/kg 5.3 K 0 % 0 % 0 % 0 m²/s² 0 0 6.56 85
14:00 101 J/kg 5.0 K 0 % 0 % 0 % 0 m²/s² 0 0 7.19 85
15:00 34 J/kg 7.1 K 0 % 0 % 0 % 0 m²/s² 0 0 9.29 2
16:00 76 J/kg 6.8 K 0 % 0 % 0 % 0 m²/s² 0 0 9.14 85
17:00 78 J/kg 7.2 K 0 % 0 % 0 % 0 m²/s² 0 0 9.12 85
18:00 54 J/kg 7.9 K 0 % 0 % 0 % 0 m²/s² 0 0 10.45 85
19:00 66 J/kg 8.1 K 0 % 0 % 0 % 0 m²/s² 0 0 10.71 85
20:00 59 J/kg 8.4 K 0 % 0 % 0 % 0 m²/s² 0 0 10.77 3
21:00 85 J/kg 8.2 K 0 % 0 % 0 % 0 m²/s² 0 0 10.9 85
22:00 29 J/kg 9.2 K 0 % 0 % 0 % 0 m²/s² 0 0 11.9 85
23:00 29 J/kg 9.7 K 0 % 0 % 0 % 0 m²/s² 0 0 12.58 85
 05:30     20:38    Daglengte: 15:08 Zaterdag 11 Apr
00:00 49 J/kg 9.7 K 0 % 0 % 0 % 0 m²/s² 0 0 12.64 85
01:00 38 J/kg 10.2 K 0 % 0 % 0 % 0 m²/s² 0 0 13.23 85
02:00 38 J/kg 10.2 K 0 % 0 % 0 % 0 m²/s² 0 0 13.5 85
03:00 65 J/kg 9.9 K 0 % 0 % 0 % 0 m²/s² 0 0 13.11 85
04:00 44 J/kg 10.5 K 0 % 0 % 0 % 0 m²/s² 0 0 13.8 85
05:00 38 J/kg 10.7 K 0 % 0 % 0 % 0 m²/s² 0 0 14.09 85
06:00 42 J/kg 10.8 K 0 % 0 % 0 % 0 m²/s² 0 0 14.1 3
07:00 40 J/kg 10.9 K 0 % 0 % 0 % 0 m²/s² 0 0 14.32 3
08:00 24 J/kg 11.2 K 0 % 0 % 0 % 0 m²/s² 0 0 14.89 85
09:00 28 J/kg 11.4 K 0 % 0 % 0 % 0 m²/s² 0 0 15.39 85
10:00 33 J/kg 11.3 K 0 % 0 % 0 % 0 m²/s² 0 0 15.62 85
11:00 43 J/kg 11.5 K 0 % 0 % 0 % 0 m²/s² 0 0 15.85 85
12:00 46 J/kg 11.8 K 0 % 0 % 0 % 0 m²/s² 0 0 16.27 85
13:00 47 J/kg 11.9 K 0 % 0 % 0 % 0 m²/s² 0 0 16.61 1
14:00 29 J/kg 11.8 K 0 % 0 % 0 % 0 m²/s² 0 0 16.51 0
15:00 28 J/kg 11.8 K 0 % 0 % 0 % 0 m²/s² 0 0 16.66 3
16:00 30 J/kg 12.0 K 0 % 0 % 0 % 0 m²/s² 0 0 17.01 85
17:00 3 J/kg 12.4 K 0 % 0 % 0 % 0 m²/s² 0 0 17.68 85
18:00 0 J/kg 12.4 K 0 % 0 % 0 % 0 m²/s² 0 0 17.71 85
19:00 0 J/kg 12.9 K 0 % 0 % 0 % 0 m²/s² 0 0 18.21 85
20:00 0 J/kg 14.0 K 0 % 0 % 0 % 0 m²/s² 0 0 19.46 85
21:00 0 J/kg 14.0 K 0 % 0 % 0 % 0 m²/s² 0 0 19.49 3
22:00 0 J/kg 13.8 K 0 % 0 % 0 % 0 m²/s² 0 0 19.11 3
23:00 0 J/kg 14.5 K 0 % 0 % 0 % 0 m²/s² 0 0 18.79 3
 05:26     20:42    Daglengte: 15:16 Zondag 12 Apr
00:00 0 J/kg 13.8 K 0 % 0 % 0 % 0 m²/s² 0 0 15.36 3
01:00 0 J/kg 13.5 K 0 % 0 % 0 % 0 m²/s² 0 0 14.19 3
02:00 0 J/kg 12.6 K 0 % 0 % 0 % 0 m²/s² 0 0 13.2 3
03:00 0 J/kg 10.8 K 0 % 0 % 0 % 0 m²/s² 0 0 11.4 3
04:00 0 J/kg 11.1 K 0 % 0 % 0 % 0 m²/s² 0 0 11.67 3
05:00 0 J/kg 12.0 K 0 % 0 % 0 % 0 m²/s² 0 0 12.57 3
06:00 0 J/kg 12.3 K 0 % 0 % 0 % 0 m²/s² 0 0 12.87 3
07:00 0 J/kg 12.4 K 0 % 0 % 0 % 0 m²/s² 0 0 13.03 3
08:00 0 J/kg 12.3 K 0 % 0 % 0 % 0 m²/s² 0 0 12.87 3
09:00 1 J/kg 11.9 K 0 % 0 % 0 % 0 m²/s² 0 0 12.47 2
10:00 4 J/kg 11.7 K 0 % 0 % 0 % 0 m²/s² 0 0 12.27 2
11:00 8 J/kg 10.9 K 0 % 0 % 0 % 0 m²/s² 0 0 11.47 0
12:00 21 J/kg 9.4 K 0 % 0 % 0 % 0 m²/s² 0 0 10 1
13:00 24 J/kg 8.3 K 0 % 0 % 0 % 0 m²/s² 0 0 8.87 1
14:00 21 J/kg 7.9 K 0 % 0 % 0 % 0 m²/s² 0 0 8.53 3
15:00 26 J/kg 7.0 K 0 % 0 % 0 % 0 m²/s² 0 0 7.69 85
16:00 16 J/kg 5.8 K 0 % 0 % 0 % 0 m²/s² 0 0 6.46 85
17:00 22 J/kg 4.8 K 0 % 0 % 0 % 0 m²/s² 0 0 5.49 85
18:00 89 J/kg 3.2 K 0 % 0 % 0 % 0 m²/s² 0 0 3.92 3
19:00 82 J/kg 2.8 K 0 % 0 % 0 % 0 m²/s² 0 0 3.61 3
20:00 118 J/kg 2.5 K 0 % 0 % 0 % 0 m²/s² 0 0 3.22 85
21:00 20 J/kg 3.5 K 0 % 0 % 0 % 0 m²/s² 0 0 4.31
22:00 59 J/kg 3.2 K 0 % 0 % 0 % 0 m²/s² 0 0 3.92
Temp Baro Wind Neerslag
  EWN Forecast EWN WRFDA DWD ICON FMI HIRLAM MET Norway GFS
 05:38     20:31    Daglengte: 14:53 Vandaag
23:00 0.8° 1016.1 hPa 7.7 m/s 0.0 mm -0.3° 1013.9 hPa 6.4 m/s 2.1 mm 0.4° 1016.6 hPa 7.6 m/s 0.7 mm 0.5° 1016.2 hPa 7.6 m/s 0.0 mm 1.0° 1016.0 hPa 8.2 m/s 0.9° 1016.8 hPa 8.2 m/s
 05:34     20:35    Daglengte: 15:01 Morgen
02:00 0.5° 1016.5 hPa 7.7 m/s 1.9 mm -0.8° 1014.7 hPa 7.6 m/s 6.8 mm -0.0° 1016.9 hPa 7.2 m/s 0.5 mm 0.5° 1016.2 hPa 8.0 m/s 0.0 mm 0.5° 1016.6 hPa 7.4 m/s 0.4° 1017.4 hPa 9.1 m/s
05:00 0.5° 1016.1 hPa 7.8 m/s 1.5 mm -0.7° 1014.6 hPa 5.7 m/s 7.9 mm 0.0° 1017.1 hPa 7.6 m/s 0.6 mm 0.3° 1015.8 hPa 6.9 m/s 0.0 mm 0.8° 1016.0 hPa 8.0 m/s 0.3° 1017.9 hPa 8.5 m/s
08:00 0.1° 1015.1 hPa 5.6 m/s 0.7 mm -0.2° 1014.4 hPa 7.5 m/s 9.6 mm -0.1° 1016.0 hPa 7.2 m/s 0.5 mm 0.5° 1014.5 hPa 4.4 m/s 0.0 mm 0.0° 1015.0 hPa 3.0 m/s 0.5° 1017.2 hPa 8.6 m/s
11:00 1.8° 1014.4 hPa 6.3 m/s 3.1 mm -0.1° 1013.7 hPa 5.8 m/s 10.0 mm 2.0° 1015.0 hPa 8.8 m/s 2.1 mm 2.3° 1012.8 hPa 5.9 m/s 0.0 mm 1.4° 1014.5 hPa 4.9 m/s 0.4° 1016.6 hPa 9.5 m/s
14:00 1.3° 1015.0 hPa 8.1 m/s 3.3 mm 0.5° 1014.6 hPa 8.6 m/s 11.3 mm 1.6° 1016.2 hPa 8.9 m/s 0.9 mm 1.3° 1015.0 hPa 8.0 m/s 0.0 mm 1.0° 1014.3 hPa 6.7 m/s 1.1° 1016.9 hPa 11.0 m/s
17:00 1.6° 1016.2 hPa 8.2 m/s 1.9 mm 0.6° 1015.7 hPa 7.7 m/s 11.8 mm 1.0° 1016.8 hPa 6.2 m/s 0.2 mm 1.3° 1016.1 hPa 7.9 m/s 0.0 mm 2.1° 1016.4 hPa 8.6 m/s 1.1° 1017.5 hPa 9.0 m/s
20:00 0.9° 1017.5 hPa 7.2 m/s 1.9 mm 0.0° 1016.0 hPa 5.7 m/s 12.0 mm 0.6° 1017.7 hPa 5.9 m/s 0.4 mm 0.9° 1017.4 hPa 6.7 m/s 0.0 mm 0.9° 1017.7 hPa 7.6 m/s 0.6° 1018.7 hPa 7.8 m/s
23:00 0.6° 1018.7 hPa 6.0 m/s 1.0 mm -0.1° 1016.9 hPa 6.1 m/s 12.8 mm 0.6° 1018.5 hPa 5.9 m/s 0.6 mm 0.9° 1018.5 hPa 6.7 m/s 0.0 mm -0.1° 1019.1 hPa 5.6 m/s 0.5° 1020.2 hPa 7.0 m/s
 05:30     20:38    Daglengte: 15:08 Zaterdag 11 Apr
02:00 0.7° 1019.9 hPa 6.6 m/s 0.0 mm -0.5° 1018.1 hPa 3.9 m/s 13.0 mm 0.5° 1020.1 hPa 6.3 m/s 0.8 mm 1.0° 1019.2 hPa 5.1 m/s 0.0 mm 0.6° 1020.0 hPa 7.4 m/s 0.3° 1021.4 hPa 5.9 m/s
05:00 1.0° 1020.6 hPa 5.4 m/s 2.2 mm 0.0° 1018.2 hPa 4.1 m/s 14.1 mm 0.7° 1020.9 hPa 5.4 m/s 0.6 mm 1.3° 1019.2 hPa 6.1 m/s 0.0 mm 0.9° 1020.8 hPa 5.5 m/s 0.3° 1021.5 hPa 5.3 m/s
08:00 1.3° 1020.2 hPa 6.2 m/s 1.2 mm 0.8° 1018.4 hPa 4.3 m/s 14.5 mm 1.4° 1020.6 hPa 6.5 m/s 0.5 mm 2.1° 1018.5 hPa 7.8 m/s 0.0 mm 0.7° 1020.3 hPa 5.0 m/s 0.5° 1021.9 hPa 4.3 m/s
11:00 2.4° 1020.2 hPa 5.1 m/s 1.2 mm 1.1° 1018.5 hPa 5.4 m/s 14.5 mm 1.9° 1020.6 hPa 5.2 m/s 0.9 mm 2.4° 1019.3 hPa 7.3 m/s 0.0 mm 2.5° 1020.2 hPa 4.4 m/s 0.6° 1021.8 hPa 4.6 m/s
14:00 2.4° 1019.6 hPa 5.9 m/s 0.0 mm 1.5° 1017.8 hPa 4.6 m/s 14.9 mm 2.5° 1019.6 hPa 5.7 m/s 0.2 mm 2.4° 1019.2 hPa 5.9 m/s 0.0 mm 2.8° 1019.6 hPa 5.6 m/s 1.1° 1021.2 hPa 3.6 m/s
17:00 2.4° 1017.5 hPa 3.7 m/s 0.0 mm 1.3° 1015.6 hPa 1.7 m/s 15.1 mm 1.9° 1017.7 hPa 4.2 m/s 0.5 mm 2.7° 1017.5 hPa 3.8 m/s 1.1° 1018.9 hPa 0.7 m/s
20:00 1.2° 1014.2 hPa 2.8 m/s 0.0 mm 0.0° 1012.1 hPa 4.5 m/s 15.1 mm 1.1° 1014.3 hPa 2.3 m/s 0.8 mm 1.1° 1014.4 hPa 1.7 m/s 0.2° 1016.2 hPa 4.6 m/s
23:00 0.1° 1009.8 hPa 5.4 m/s 0.0 mm -0.3° 1007.4 hPa 4.7 m/s 15.1 mm 1.4° 1010.1 hPa 2.9 m/s 0.0 mm -1.0° 1010.3 hPa 5.7 m/s -1.1° 1013.0 hPa 5.3 m/s
 05:26     20:42    Daglengte: 15:16 Zondag 12 Apr
02:00 0.9° 1005.4 hPa 4.2 m/s 0.0 mm 0.8° 1002.2 hPa 4.1 m/s 15.1 mm 1.7° 1005.9 hPa 2.7 m/s 0.0 mm -1.0° 1006.1 hPa 4.4 m/s -1.6° 1009.1 hPa 5.5 m/s
05:00 0.5° 1001.5 hPa 4.6 m/s 2.1 mm -0.4° 996.4 hPa 7.2 m/s 16.3 mm 1.7° 1002.2 hPa 2.4 m/s 0.0 mm 0.1° 1002.7 hPa 4.7 m/s -1.4° 1003.7 hPa 5.2 m/s
08:00 1.0° 998.2 hPa 4.9 m/s 6.8 mm -0.6° 991.4 hPa 6.6 m/s 18.7 mm 1.6° 999.8 hPa 2.5 m/s 0.0 mm 1.1° 999.2 hPa 5.0 m/s -1.1° 999.5 hPa 4.9 m/s
11:00 1.3° 996.8 hPa 4.3 m/s 7.4 mm -0.8° 989.9 hPa 6.1 m/s 20.0 mm 1.8° 998.7 hPa 3.0 m/s 0.0 mm 1.6° 997.8 hPa 3.9 m/s -1.0° 996.9 hPa 4.2 m/s
14:00 1.7° 996.0 hPa 5.1 m/s 7.5 mm 0.0° 991.9 hPa 9.6 m/s 21.3 mm 1.8° 998.7 hPa 5.0 m/s 0.0 mm 2.1° 996.4 hPa 2.7 m/s 0.2° 998.0 hPa 5.4 m/s
17:00 1.4° 997.8 hPa 5.9 m/s 8.1 mm -0.4° 994.2 hPa 8.6 m/s 21.3 mm 1.0° 998.4 hPa 5.6 m/s 1.5 mm 2.0° 998.2 hPa 5.7 m/s 1.6° 999.4 hPa 10.7 m/s
20:00 1.7° 999.4 hPa 8.2 m/s 2.7 mm 0.0° 995.6 hPa 10.3 m/s 22.3 mm 1.8° 999.7 hPa 5.1 m/s 0.2 mm 1.9° 1000.0 hPa 8.6 m/s 1.3° 1001.5 hPa 11.8 m/s
23:00 1.5° 1001.6 hPa 9.8 m/s 25.4 mm -0.6° 998.4 hPa 14.6 m/s 25.4 mm 1.8° 1002.1 hPa 9.0 m/s 0.1° 1003.8 hPa 13.5 m/s
 05:22     20:46    Daglengte: 15:24 Maandag 13 Apr
02:00 1.4° 1003.9 hPa 10.6 m/s 29.2 mm -0.7° 1001.4 hPa 17.9 m/s 29.2 mm 1.7° 1004.3 hPa 9.4 m/s 0.0° 1005.6 hPa 15.8 m/s
05:00 1.2° 1009.4 hPa 10.0 m/s 14.2 mm 1.4° 1009.6 hPa 9.4 m/s -0.6° 1007.3 hPa 16.6 m/s 14.2 mm
08:00 1.0° 1012.1 hPa 9.8 m/s 14.6 mm 1.2° 1012.3 hPa 9.4 m/s -0.8° 1010.1 hPa 14.4 m/s 14.6 mm
11:00 1.3° 1013.3 hPa 9.1 m/s 15.0 mm 1.4° 1013.5 hPa 8.7 m/s -0.8° 1011.9 hPa 13.8 m/s 15.0 mm
14:00 1.5° 1014.5 hPa 8.2 m/s 15.2 mm 1.7° 1014.6 hPa 7.9 m/s -0.3° 1012.9 hPa 12.1 m/s 15.2 mm
17:00 1.5° 1014.7 hPa 6.3 m/s 15.5 mm 1.6° 1014.8 hPa 5.8 m/s 0.1° 1013.8 hPa 12.7 m/s 15.5 mm
20:00 1.5° 1014.9 hPa 4.2 m/s 16.1 mm 1.5° 1014.9 hPa 3.6 m/s 1.0° 1015.2 hPa 10.3 m/s 16.1 mm
23:00 1.4° 1013.4 hPa 4.0 m/s 16.4 mm 1.4° 1013.1 hPa 3.8 m/s 1.0° 1016.2 hPa 6.8 m/s 16.4 mm
 05:17     20:50    Daglengte: 15:33 Dinsdag 14 Apr
02:00 1.2° 1011.7 hPa 4.0 m/s 16.8 mm 1.3° 1011.3 hPa 3.9 m/s 0.3° 1016.0 hPa 4.6 m/s 16.8 mm
05:00 1.7° 1007.2 hPa 6.2 m/s 16.9 mm 1.9° 1006.5 hPa 6.2 m/s -0.4° 1014.7 hPa 5.3 m/s 16.9 mm
08:00 2.2° 1002.7 hPa 8.3 m/s 16.9 mm 2.4° 1001.8 hPa 8.6 m/s -0.3° 1012.1 hPa 5.3 m/s 16.9 mm
11:00 3.5° 1001.2 hPa 8.5 m/s 17.0 mm 3.7° 1000.5 hPa 8.6 m/s 1.5° 1008.4 hPa 7.2 m/s 17.0 mm
14:00 4.7° 999.6 hPa 8.3 m/s 18.6 mm 5.0° 999.2 hPa 8.6 m/s 1.6° 1004.1 hPa 5.6 m/s 18.6 mm
17:00 5.0° 998.5 hPa 8.5 m/s 24.4 mm 5.0° 998.3 hPa 8.4 m/s 4.2° 1001.1 hPa 8.6 m/s 24.4 mm
20:00 5.1° 997.7 hPa 8.3 m/s 27.0 mm 5.1° 997.4 hPa 8.3 m/s 4.9° 1000.8 hPa 8.4 m/s 27.0 mm
23:00 4.9° 997.8 hPa 8.7 m/s 27.6 mm 5.0° 997.3 hPa 8.7 m/s 3.8° 1002.8 hPa 9.8 m/s 27.6 mm
 05:13     20:53    Daglengte: 15:40 Woensdag 15 Apr
02:00 4.8° 997.8 hPa 8.9 m/s 27.9 mm 5.0° 997.2 hPa 9.0 m/s 2.7° 1005.0 hPa 7.5 m/s 27.9 mm
05:00 4.7° 998.9 hPa 9.5 m/s 28.4 mm 4.8° 998.2 hPa 9.6 m/s 2.5° 1006.8 hPa 8.0 m/s 28.4 mm
08:00 4.6° 999.8 hPa 10.1 m/s 28.7 mm 4.7° 999.1 hPa 10.2 m/s 3.2° 1007.6 hPa 8.4 m/s 28.7 mm
11:00 4.7° 999.8 hPa 10.2 m/s 28.8 mm 4.8° 999.0 hPa 10.5 m/s 3.5° 1009.1 hPa 7.3 m/s 28.8 mm
14:00 4.7° 999.8 hPa 10.3 m/s 29.6 mm 4.9° 998.9 hPa 10.8 m/s 3.0° 1009.9 hPa 4.8 m/s 29.6 mm
17:00 4.6° 1000.9 hPa 9.8 m/s 30.7 mm 4.6° 1000.0 hPa 9.9 m/s 4.9° 1009.9 hPa 8.9 m/s 30.7 mm
20:00 4.3° 1001.9 hPa 9.0 m/s 30.8 mm 4.3° 1001.2 hPa 8.9 m/s 4.9° 1009.8 hPa 10.0 m/s 30.8 mm
23:00 4.4° 1002.0 hPa 8.9 m/s 31.1 mm 4.3° 1001.4 hPa 9.1 m/s 5.1° 1009.2 hPa 7.3 m/s 31.1 mm
 05:09     20:57    Daglengte: 15:48 Donderdag 16 Apr
02:00 4.5° 1002.0 hPa 9.4 m/s 31.6 mm 4.4° 1001.6 hPa 9.2 m/s 5.3° 1006.6 hPa 11.0 m/s 31.6 mm
05:00 4.4° 1001.2 hPa 9.4 m/s 32.0 mm 4.3° 1000.9 hPa 9.1 m/s 5.0° 1004.1 hPa 13.1 m/s 32.0 mm
08:00 4.2° 1000.4 hPa 9.3 m/s 34.3 mm 4.2° 1000.2 hPa 8.9 m/s 4.1° 1002.0 hPa 13.2 m/s 34.3 mm
11:00 4.4° 1000.5 hPa 8.4 m/s 37.7 mm 4.3° 1000.5 hPa 7.8 m/s 4.8° 1001.1 hPa 14.5 m/s 37.7 mm
14:00 4.5° 1000.8 hPa 7.5 m/s 38.4 mm 4.5° 1000.7 hPa 6.8 m/s 4.7° 1001.5 hPa 15.4 m/s 38.4 mm
17:00 4.3° 1001.9 hPa 7.7 m/s 39.2 mm 4.3° 1001.9 hPa 7.0 m/s 4.4° 1002.4 hPa 14.8 m/s 39.2 mm
20:00 4.0° 1003.1 hPa 8.0 m/s 40.1 mm 4.1° 1003.1 hPa 7.3 m/s 2.6° 1003.4 hPa 16.3 m/s 40.1 mm
 05:05     21:01    Daglengte: 15:56 Vrijdag 17 Apr
02:00 3.1° 1005.5 hPa 6.0 m/s 42.8 mm 3.1° 1005.0 hPa 5.4 m/s 2.6° 1010.7 hPa 13.0 m/s 42.8 mm
08:00 3.5° 1012.9 hPa 4.9 m/s 45.6 mm 3.5° 1012.4 hPa 4.6 m/s 3.4° 1018.3 hPa 8.6 m/s 45.6 mm
14:00 4.7° 1016.2 hPa 4.1 m/s 46.3 mm 4.8° 1015.5 hPa 4.0 m/s 3.1° 1023.4 hPa 5.7 m/s 46.3 mm
20:00 4.0° 1018.2 hPa 2.9 m/s 46.3 mm 4.1° 1017.7 hPa 2.8 m/s 3.0° 1023.8 hPa 3.4 m/s 46.3 mm
 05:01     21:05    Daglengte: 16:04 Zaterdag 18 Apr
02:00 3.7° 1017.1 hPa 3.4 m/s 46.3 mm 3.9° 1016.5 hPa 3.4 m/s 1.9° 1023.8 hPa 4.0 m/s 46.3 mm
08:00 4.1° 1017.5 hPa 5.2 m/s 46.3 mm 4.2° 1017.0 hPa 5.3 m/s 2.5° 1023.0 hPa 4.5 m/s 46.3 mm
14:00 6.6° 1018.9 hPa 6.1 m/s 46.3 mm 6.6° 1018.6 hPa 6.4 m/s 6.2° 1022.6 hPa 3.3 m/s 46.3 mm
20:00 5.9° 1018.9 hPa 6.3 m/s 46.3 mm 5.9° 1018.5 hPa 6.7 m/s 6.3° 1022.8 hPa 2.5 m/s 46.3 mm
 04:56     21:08    Daglengte: 16:12 Zondag 19 Apr
02:00 4.4° 1023.1 hPa 5.2 m/s 46.3 mm 4.4° 1023.1 hPa 5.2 m/s 46.3 mm
08:00 5.2° 1022.7 hPa 6.1 m/s 46.3 mm 5.2° 1022.7 hPa 6.1 m/s 46.3 mm
14:00 7.9° 1022.5 hPa 5.9 m/s 46.3 mm 7.9° 1022.5 hPa 5.9 m/s 46.3 mm
20:00 6.3° 1015.7 hPa 5.6 m/s 1.2 mm
 04:52     21:12    Daglengte: 16:20 Maandag 20 Apr
02:00 5.3° 1016.8 hPa 5.4 m/s 0.4 mm
08:00 5.5° 1017.6 hPa 4.8 m/s 1.0 mm
14:00 6.4° 1019.2 hPa 4.7 m/s 1.0 mm
20:00 5.8° 1019.5 hPa 3.9 m/s 1.0 mm
 04:48     21:16    Daglengte: 16:28 Dinsdag 21 Apr
02:00 5.1° 1019.2 hPa 3.8 m/s 0.8 mm
08:00 5.8° 1017.8 hPa 3.3 m/s 1.4 mm
14:00 7.1° 1017.4 hPa 3.4 m/s 0.9 mm
20:00 6.5° 1016.7 hPa 3.2 m/s 1.1 mm
 04:44     21:20    Daglengte: 16:36 Woensdag 22 Apr
02:00 5.5° 1016.0 hPa 4.1 m/s 0.4 mm
08:00 6.0° 1015.4 hPa 4.2 m/s 1.4 mm
14:00 7.2° 1016.5 hPa 4.0 m/s 1.5 mm
20:00 6.4° 1016.5 hPa 4.2 m/s 1.2 mm
 04:40     21:24    Daglengte: 16:44 Donderdag 23 Apr
02:00 5.3° 1016.8 hPa 3.8 m/s 1.0 mm
08:00 5.6° 1016.8 hPa 2.8 m/s 1.2 mm
14:00 6.9° 1018.2 hPa 1.8 m/s 0.9 mm
20:00 6.6° 1017.6 hPa 1.6 m/s 0.5 mm
 04:35     21:28    Daglengte: 16:53 Vrijdag 24 Apr
02:00 5.2° 1017.0 hPa 2.9 m/s 1.0 mm
08:00 5.7° 1016.2 hPa 3.3 m/s 1.1 mm
14:00 6.8° 1016.2 hPa 4.1 m/s 0.8 mm
20:00 6.0° 1015.3 hPa 3.3 m/s 1.2 mm
FMI Hirlam - 7.5 km EWN WRFDA - 12 km DWD ICON - 7 km GFS - 25 km Basiskaart






























































Updatetijd (Europe/Amsterdam) Resolutie Lengte Stap
FMI Hirlam 19:00, 01:00, 07:00, 13:00 7.5 km 49h 1h
EWN WRFDA 21:15, 03:15, 09:15, 15:15 12 km 73h 1h
DWD ICON 17:45, 23:45, 05:45, 11:45 7 km 75h 1h
GFS 19:30, 01:30, 07:30, 13:30 25 km 237h 3h
30+ mm
25-30 mm
20-25 mm
15-20 mm
10-15 mm
6-10 mm
4-6 mm
2-4 mm
1-2 mm
0.5-1 mm
0.2-0.5 mm
0.1-0.2 mm
30+ mm
25-30 mm
20-25 mm
15-20 mm
10-15 mm
6-10 mm
4-6 mm
2-4 mm
1-2 mm
0.5-1 mm
0.2-0.5 mm
0.1-0.2 mm
Sneeuwval
Natte sneeuw
Hagel
Vorst
30+ mm
25-30 mm
20-25 mm
15-20 mm
10-15 mm
6-10 mm
4-6 mm
2-4 mm
1-2 mm
0.5-1 mm
0.2-0.5 mm
0.1-0.2 mm
Sneeuwval
Natte sneeuw
Hagel
Vorst
Onweer
50 mm
40 mm
30 mm
26 mm
22 mm
18 mm
14 mm
10 mm
9 mm
8 mm
7 mm
6 mm
5 mm
4.5 mm
4 mm
3.5 mm
3 mm
2.5 mm
2 mm
1.5 mm
1 mm
0.8 mm
0.6 mm
0.4 mm
0.2 mm
0.05 mm
35°
30°
25°
20°
15°
10°
-5°
-10°
-15°
-20°
-25°
-30°
-35°
120> km/h
105 km/h
90 km/h
75 km/h
60 km/h
50 km/h
40 km/h
30 km/h
20 km/h
10 km/h
0 km/h
2600 J/kg
2400 J/kg
2200 J/kg
2000 J/kg
1800 J/kg
1600 J/kg
1400 J/kg
1200 J/kg
1000 J/kg
800 J/kg
600 J/kg
400 J/kg
200 J/kg
70 dBZ
65 dBZ
60 dBZ
55 dBZ
50 dBZ
45 dBZ
40 dBZ
35 dBZ
30 dBZ
25 dBZ
20 dBZ
15 dBZ
10 dBZ
5 dBZ
-1 K
-2 K
-3 K
-4 K
-5 K
-6 K
-7 K
-8 K
-9 K
950 m²/s²
900 m²/s²
850 m²/s²
800 m²/s²
750 m²/s²
700 m²/s²
650 m²/s²
600 m²/s²
550 m²/s²
500 m²/s²
450 m²/s²
400 m²/s²
350 m²/s²
300 m²/s²
250 m²/s²
200 m²/s²
150 m²/s²
100 m²/s²
46 m/s
44 m/s
42 m/s
40 m/s
38 m/s
36 m/s
34 m/s
32 m/s
30 m/s
28 m/s
26 m/s
24 m/s
22 m/s
20 m/s
16 m/s
12 m/s
8 m/s
4 m/s
30 m/s
28 m/s
26 m/s
24 m/s
22 m/s
20 m/s
18 m/s
16 m/s
14 m/s
12 m/s
10 m/s
8 m/s
6 m/s
4 m/s
2 m/s
3.0
2.8
2.6
2.4
2.2
2.0
1.8
1.6
1.4
1.2
1.0
0.8
0.6
0.4
0.2
15
14
13
12
11
10
9
8
7
6
5
4
3
2
1
90%
80%
70%
60%
50%
40%
30%
20%
10%
42
40
38
36
34
32
30
28
26
24
22
20
18
16
14
12
90+ cm
80-90 cm
70-80 cm
60-70 cm
50-60 cm
40-50 cm
30-40 cm
20-30 cm
10-20 cm
1-10 cm
Sneeuwval
Natte sneeuw
Regen
>120 mm
115 mm
110 mm
105 mm
100 mm
95 mm
90 mm
85 mm
80 mm
75 mm
70 mm
65 mm
60 mm
55 mm
50 mm
45 mm
45 mm
40 mm
35 mm
30 mm
25 mm
20 mm
15 mm
10 mm
5 mm
0.1 mm
960 hPa
880 hPa
800 hPa
720 hPa
640 hPa
560 hPa
584 gpdm